Torna al catalogo

HAWK-3C

AttivoMilitarePO
NORAD 48948·PAYLOAD·🇺🇸 United States

Lanciato Jun 30, 2021 da Cape Canaveral Space Force Station

Loading…

Prossimi Passaggi (prossime 24 ore)

TLE

AggiornatoSource: Space-Track

Epoca: Sep 14, 2026, 08:47 UTC

1 48948U 21059BX  26257.36615410  .00048328  00000-0  29310-3 0  9991
2 48948  97.6652 108.8392 0003701  11.6177 348.5173 15.77411730291879

Traccia HAWK-3C in tempo reale con AllMySat

Download on the App Store